WZZ2414 EYKA-UKBB

Flight info

Callsign WZZ2414
Flight time 1h 25m
Altitude 34000
Route KAZLA DCT TUNGA DCT SUWGI DCT ETUBO/N0452F370 DCT LUGUG DCT TOLPA/K0833F370 DCT LAPVA M70 SLV
Aircraft A320/M-SDE3FGHIRWY/LB1

Departure

Time 2026-04-15 10:24
Airport Kaunas International Airport (EYKA)

Arrival

Time 2026-04-15 11:49
Airport Boryspil International Airport (UKBB)
Time Latitude Longitude Altitude Speed Heading
2026-04-15 10:05 54.96584 24.07411 268 ft 0 kts 104°
2026-04-15 10:21 54.96584 24.07412 268 ft 1 kts 104°
2026-04-15 10:21 54.96575 24.07460 268 ft 6 kts 118°
2026-04-15 10:21 54.96528 24.07488 268 ft 9 kts 175°
2026-04-15 10:21 54.96497 24.07427 268 ft 8 kts 265°
2026-04-15 10:22 54.96472 24.07340 268 ft 9 kts 200°
2026-04-15 10:22 54.96403 24.07343 267 ft 11 kts 174°
2026-04-15 10:22 54.96332 24.07325 267 ft 6 kts 170°
2026-04-15 10:22 54.96330 24.07389 267 ft 7 kts 78°
2026-04-15 10:23 54.96337 24.07518 266 ft 27 kts 85°
2026-04-15 10:23 54.96376 24.08298 271 ft 98 kts 85°
2026-04-15 10:23 54.96451 24.09812 274 ft 150 kts 86°
2026-04-15 10:23 54.96550 24.11687 817 ft 155 kts 88°
2026-04-15 10:24 54.96644 24.13542 1600 ft 156 kts 88°
2026-04-15 10:24 54.96739 24.15540 2019 ft 176 kts 88°
2026-04-15 10:24 54.96845 24.17800 2350 ft 198 kts 88°
2026-04-15 10:24 54.96963 24.20349 2696 ft 223 kts 86°
2026-04-15 10:25 54.97080 24.23072 3469 ft 232 kts 90°
2026-04-15 10:25 54.96647 24.25732 4243 ft 234 kts 129°
2026-04-15 10:25 54.95313 24.27443 4828 ft 250 kts 161°
2026-04-15 10:25 54.93570 24.28026 5560 ft 260 kts 174°
2026-04-15 10:26 54.91754 24.28153 6494 ft 261 kts 179°
2026-04-15 10:26 54.89928 24.28177 7345 ft 264 kts 179°
2026-04-15 10:26 54.88081 24.28231 8190 ft 267 kts 178°
2026-04-15 10:26 54.86232 24.28349 8954 ft 272 kts 177°
2026-04-15 10:27 54.84323 24.28476 9754 ft 276 kts 183°
2026-04-15 10:27 54.82455 24.27691 10480 ft 281 kts 206°
2026-04-15 10:27 54.80887 24.25628 11043 ft 292 kts 229°
2026-04-15 10:27 54.79916 24.22412 11220 ft 316 kts 256°
2026-04-15 10:28 54.79557 24.18521 11379 ft 338 kts 261°
2026-04-15 10:28 54.79239 24.14426 11818 ft 347 kts 262°
2026-04-15 10:28 54.78918 24.10252 12428 ft 351 kts 262°
2026-04-15 10:28 54.78587 24.06042 13081 ft 354 kts 262°
2026-04-15 10:29 54.78251 24.01852 13741 ft 357 kts 262°
2026-04-15 10:29 54.77898 23.97576 14367 ft 360 kts 262°
2026-04-15 10:29 54.77534 23.93270 14965 ft 362 kts 262°
2026-04-15 10:29 54.77162 23.88944 15527 ft 365 kts 262°
2026-04-15 10:30 54.76788 23.84590 16069 ft 367 kts 262°
2026-04-15 10:30 54.76421 23.80190 16598 ft 371 kts 262°
2026-04-15 10:30 54.75907 23.75807 17144 ft 374 kts 253°
2026-04-15 10:30 54.74909 23.71637 17667 ft 378 kts 242°
2026-04-15 10:31 54.73426 23.67861 18210 ft 382 kts 231°
2026-04-15 10:31 54.71554 23.64649 18713 ft 386 kts 223°
2026-04-15 10:31 54.69553 23.61522 19211 ft 389 kts 224°
2026-04-15 10:31 54.67549 23.58372 19733 ft 391 kts 224°
2026-04-15 10:32 54.65527 23.55187 20235 ft 394 kts 224°
2026-04-15 10:32 54.63479 23.51974 20730 ft 396 kts 224°
2026-04-15 10:32 54.61457 23.48815 21199 ft 399 kts 223°
2026-04-15 10:32 54.59398 23.45605 21651 ft 401 kts 223°
2026-04-15 10:33 54.57314 23.42358 22125 ft 403 kts 223°
2026-04-15 10:33 54.55236 23.39122 22545 ft 405 kts 223°
2026-04-15 10:33 54.52988 23.36161 22989 ft 410 kts 213°
2026-04-15 10:33 54.50418 23.33992 23404 ft 415 kts 201°
2026-04-15 10:34 54.47623 23.32760 23815 ft 420 kts 190°
2026-04-15 10:34 54.44678 23.32534 24157 ft 425 kts 178°
2026-04-15 10:34 54.41779 23.33198 24503 ft 428 kts 173°
2026-04-15 10:34 54.38797 23.34020 24858 ft 430 kts 173°
2026-04-15 10:35 54.35847 23.34821 25201 ft 432 kts 173°
2026-04-15 10:35 54.32885 23.35620 25539 ft 434 kts 173°
2026-04-15 10:35 54.29898 23.36142 25875 ft 433 kts 182°
2026-04-15 10:35 54.26918 23.35607 26198 ft 432 kts 195°
2026-04-15 10:36 54.24092 23.33946 26538 ft 431 kts 208°
2026-04-15 10:36 54.21558 23.31237 26870 ft 430 kts 220°
2026-04-15 10:36 54.19433 23.27650 27207 ft 430 kts 232°
2026-04-15 10:36 54.17807 23.23376 27608 ft 429 kts 242°
2026-04-15 10:37 54.16378 23.18913 28078 ft 428 kts 242°
2026-04-15 10:37 54.14944 23.14471 28562 ft 427 kts 242°
2026-04-15 10:37 54.13506 23.10048 29036 ft 426 kts 241°
2026-04-15 10:37 54.12067 23.05639 29519 ft 425 kts 241°
2026-04-15 10:38 54.10623 23.01327 30012 ft 424 kts 237°
2026-04-15 10:38 54.08780 22.97413 30456 ft 424 kts 225°
2026-04-15 10:38 54.06495 22.94233 30868 ft 426 kts 214°
2026-04-15 10:38 54.03856 22.91935 31269 ft 428 kts 202°
2026-04-15 10:39 54.00980 22.90633 31631 ft 431 kts 190°
2026-04-15 10:39 53.97973 22.90364 32008 ft 434 kts 181°
2026-04-15 10:39 53.94962 22.90488 32389 ft 434 kts 181°
2026-04-15 10:39 53.91946 22.90623 32788 ft 433 kts 180°
2026-04-15 10:40 53.88931 22.90756 33180 ft 433 kts 181°
2026-04-15 10:40 53.85958 22.90878 33569 ft 433 kts 181°
2026-04-15 10:40 53.82946 22.90995 33966 ft 433 kts 181°
2026-04-15 10:40 53.79932 22.91110 34228 ft 434 kts 181°
2026-04-15 10:41 53.76891 22.91229 34251 ft 441 kts 181°
2026-04-15 10:41 53.70687 22.91474 34569 ft 448 kts 181°
2026-04-15 10:41 53.67569 22.91598 34858 ft 448 kts 181°
2026-04-15 10:42 53.64489 22.91721 35138 ft 449 kts 181°
2026-04-15 10:42 53.61364 22.91845 35394 ft 450 kts 180°
2026-04-15 10:42 53.58233 22.91969 35652 ft 450 kts 180°
2026-04-15 10:42 53.55098 22.92092 35910 ft 451 kts 180°
2026-04-15 10:43 53.51958 22.92215 36160 ft 452 kts 180°
2026-04-15 10:43 53.48815 22.92339 36417 ft 452 kts 180°
2026-04-15 10:43 53.45676 22.92466 36674 ft 452 kts 180°
2026-04-15 10:43 53.42529 22.92593 36927 ft 452 kts 180°
2026-04-15 10:44 53.39380 22.92717 37164 ft 453 kts 180°
2026-04-15 10:44 53.33066 22.92963 37250 ft 454 kts 180°
2026-04-15 10:45 53.26797 22.93198 37249 ft 454 kts 180°
2026-04-15 10:45 53.20484 22.93439 37247 ft 454 kts 180°
2026-04-15 10:46 53.14170 22.93690 37251 ft 454 kts 180°
2026-04-15 10:46 53.07857 22.93927 37252 ft 454 kts 180°
2026-04-15 10:47 53.01571 22.94171 37240 ft 455 kts 180°
2026-04-15 10:47 52.95270 22.94415 37246 ft 455 kts 180°
2026-04-15 10:48 52.88931 22.94660 37255 ft 456 kts 180°
2026-04-15 10:48 52.82591 22.94897 37266 ft 455 kts 180°
2026-04-15 10:49 52.76254 22.95144 37257 ft 455 kts 180°
2026-04-15 10:49 52.69959 22.95385 37247 ft 456 kts 180°
2026-04-15 10:50 52.63617 22.95618 37255 ft 456 kts 180°
2026-04-15 10:50 52.57270 22.95859 37257 ft 456 kts 180°
2026-04-15 10:51 52.50927 22.96104 37249 ft 456 kts 180°
2026-04-15 10:51 52.44575 22.96334 37249 ft 457 kts 181°
2026-04-15 10:52 52.38262 22.96573 37241 ft 457 kts 180°
2026-04-15 10:52 52.31906 22.96825 37240 ft 457 kts 180°
2026-04-15 10:53 52.25557 22.97071 37255 ft 457 kts 180°
2026-04-15 10:53 52.19200 22.97313 37231 ft 457 kts 181°
2026-04-15 10:54 52.12884 22.97562 37237 ft 457 kts 180°
2026-04-15 10:54 52.06523 22.97812 37237 ft 457 kts 181°
2026-04-15 10:55 52.00160 22.98049 37246 ft 457 kts 181°
2026-04-15 10:55 51.93794 22.98290 37238 ft 458 kts 181°
2026-04-15 10:56 51.87468 22.98544 37244 ft 458 kts 181°
2026-04-15 10:56 51.81105 22.98786 37248 ft 458 kts 181°
2026-04-15 10:57 51.74732 22.99022 37244 ft 458 kts 181°
2026-04-15 10:57 51.65177 22.99364 37240 ft 458 kts 181°
2026-04-15 10:58 51.58812 22.99601 37244 ft 457 kts 181°
2026-04-15 10:58 51.52495 22.99845 37242 ft 457 kts 181°
2026-04-15 10:59 51.46162 23.00569 37244 ft 460 kts 167°
2026-04-15 10:59 51.43169 23.02386 37231 ft 462 kts 152°
2026-04-15 10:59 51.40553 23.05376 37220 ft 464 kts 137°
2026-04-15 11:00 51.38472 23.09314 37215 ft 464 kts 122°
2026-04-15 11:00 51.37060 23.13948 37209 ft 464 kts 107°
2026-04-15 11:00 51.35662 23.23950 37207 ft 465 kts 101°
2026-04-15 11:01 51.34334 23.34090 37213 ft 466 kts 101°
2026-04-15 11:01 51.32987 23.44241 37208 ft 468 kts 101°
2026-04-15 11:02 51.31637 23.54418 37216 ft 468 kts 101°
2026-04-15 11:02 51.30283 23.64534 37214 ft 469 kts 102°
2026-04-15 11:03 51.28860 23.74708 37230 ft 469 kts 102°
2026-04-15 11:03 51.27371 23.84865 37240 ft 470 kts 103°
2026-04-15 11:04 51.25873 23.95017 37241 ft 470 kts 103°
2026-04-15 11:04 51.24382 24.05175 37238 ft 470 kts 102°
2026-04-15 11:05 51.22902 24.15257 37242 ft 470 kts 103°
2026-04-15 11:05 51.21394 24.25415 37242 ft 471 kts 103°
2026-04-15 11:06 51.19866 24.35572 37245 ft 471 kts 103°
2026-04-15 11:06 51.18333 24.45726 37246 ft 471 kts 103°
2026-04-15 11:07 51.16803 24.55808 37248 ft 471 kts 103°
2026-04-15 11:07 51.15260 24.65939 37250 ft 471 kts 103°
2026-04-15 11:08 51.13708 24.76074 37245 ft 471 kts 103°
2026-04-15 11:08 51.12143 24.86208 37250 ft 471 kts 103°
2026-04-15 11:09 51.10580 24.96268 37249 ft 471 kts 103°
2026-04-15 11:09 51.08999 25.06390 37245 ft 472 kts 103°
2026-04-15 11:10 51.07408 25.16514 37246 ft 472 kts 103°
2026-04-15 11:10 51.05812 25.26621 37252 ft 472 kts 103°
2026-04-15 11:11 51.04199 25.36731 37244 ft 472 kts 103°
2026-04-15 11:11 51.02587 25.46771 37245 ft 472 kts 103°
2026-04-15 11:12 51.00949 25.56877 37247 ft 473 kts 104°
2026-04-15 11:12 50.99312 25.66985 37246 ft 473 kts 104°
2026-04-15 11:13 50.97668 25.77018 37245 ft 473 kts 104°
2026-04-15 11:13 50.96017 25.87106 37248 ft 473 kts 104°
2026-04-15 11:14 50.94356 25.97201 37245 ft 473 kts 104°
2026-04-15 11:14 50.92678 26.07292 37247 ft 473 kts 104°
2026-04-15 11:15 50.90990 26.17380 37251 ft 474 kts 104°
2026-04-15 11:15 50.89303 26.27398 37253 ft 474 kts 104°
2026-04-15 11:16 50.87600 26.37479 37260 ft 474 kts 104°
2026-04-15 11:16 50.85890 26.47553 37252 ft 474 kts 104°
2026-04-15 11:17 50.84164 26.57619 37252 ft 474 kts 104°
2026-04-15 11:17 50.82434 26.67666 37255 ft 474 kts 104°
2026-04-15 11:18 50.80712 26.77650 37257 ft 474 kts 104°
2026-04-15 11:18 50.78966 26.87686 37250 ft 473 kts 105°
2026-04-15 11:19 50.77207 26.97704 37253 ft 473 kts 105°
2026-04-15 11:19 50.75439 27.07708 37250 ft 473 kts 105°
2026-04-15 11:20 50.73691 27.17628 37255 ft 472 kts 105°
2026-04-15 11:20 50.71918 27.27608 37245 ft 472 kts 105°
2026-04-15 11:21 50.70135 27.37581 37242 ft 472 kts 105°
2026-04-15 11:21 50.68332 27.47542 37251 ft 472 kts 105°
2026-04-15 11:22 50.66540 27.57429 37247 ft 472 kts 105°
2026-04-15 11:22 50.64738 27.67376 37243 ft 472 kts 105°
2026-04-15 11:23 50.62927 27.77307 37247 ft 472 kts 105°
2026-04-15 11:23 50.61107 27.87247 37249 ft 472 kts 105°
2026-04-15 11:24 50.59272 27.97180 37229 ft 473 kts 105°
2026-04-15 11:24 50.57438 28.07042 37244 ft 473 kts 105°
2026-04-15 11:25 50.55580 28.16969 37228 ft 473 kts 106°
2026-04-15 11:25 50.53715 28.26894 37229 ft 473 kts 106°
2026-04-15 11:26 50.51840 28.36804 37240 ft 474 kts 106°
2026-04-15 11:26 50.49972 28.46655 37230 ft 474 kts 106°
2026-04-15 11:27 50.48083 28.56565 37237 ft 474 kts 106°
2026-04-15 11:27 50.46179 28.66463 37229 ft 474 kts 106°
2026-04-15 11:28 50.45043 28.71297 36905 ft 472 kts 115°
2026-04-15 11:28 50.43644 28.75951 36298 ft 472 kts 115°
2026-04-15 11:28 50.42248 28.80537 35689 ft 472 kts 115°
2026-04-15 11:28 50.40827 28.85186 35096 ft 473 kts 115°
2026-04-15 11:29 50.39403 28.89839 34500 ft 474 kts 115°
2026-04-15 11:29 50.37981 28.94489 33851 ft 475 kts 115°
2026-04-15 11:29 50.36552 28.99166 33054 ft 477 kts 115°
2026-04-15 11:29 50.35119 29.03864 32223 ft 480 kts 115°
2026-04-15 11:30 50.33674 29.08597 31361 ft 484 kts 115°
2026-04-15 11:30 50.32214 29.13367 30490 ft 488 kts 115°
2026-04-15 11:30 50.30743 29.18167 29621 ft 492 kts 115°
2026-04-15 11:30 50.29252 29.23007 28473 ft 495 kts 115°
2026-04-15 11:31 50.27771 29.27788 27720 ft 493 kts 115°
2026-04-15 11:31 50.26284 29.32590 27058 ft 489 kts 115°
2026-04-15 11:31 50.24807 29.37352 26378 ft 485 kts 115°
2026-04-15 11:31 50.23340 29.42074 25736 ft 481 kts 115°
2026-04-15 11:32 50.22004 29.46831 25101 ft 476 kts 107°
2026-04-15 11:32 50.21164 29.51782 24503 ft 469 kts 97°
2026-04-15 11:32 50.20866 29.56799 23897 ft 461 kts 86°
2026-04-15 11:32 50.21080 29.61670 23226 ft 452 kts 77°
2026-04-15 11:33 50.21780 29.66390 22548 ft 442 kts 67°
2026-04-15 11:33 50.22918 29.70781 21885 ft 432 kts 58°
2026-04-15 11:33 50.24224 29.74981 21259 ft 428 kts 59°
2026-04-15 11:33 50.25503 29.79159 20661 ft 424 kts 59°
2026-04-15 11:34 50.26757 29.83303 20079 ft 421 kts 59°
2026-04-15 11:34 50.27998 29.87428 19496 ft 418 kts 59°
2026-04-15 11:34 50.29230 29.91522 19006 ft 414 kts 58°
2026-04-15 11:34 50.30452 29.95574 18508 ft 410 kts 58°
2026-04-15 11:35 50.31664 29.99582 17944 ft 405 kts 58°
2026-04-15 11:35 50.32849 30.03497 17389 ft 401 kts 58°
2026-04-15 11:35 50.34035 30.07422 16832 ft 397 kts 59°
2026-04-15 11:35 50.35206 30.11306 16277 ft 392 kts 59°
2026-04-15 11:36 50.36364 30.15147 15747 ft 388 kts 59°
2026-04-15 11:36 50.37507 30.18948 15205 ft 383 kts 59°
2026-04-15 11:36 50.38576 30.22747 14679 ft 382 kts 66°
2026-04-15 11:36 50.39224 30.26786 14157 ft 383 kts 77°
2026-04-15 11:37 50.39367 30.30963 13596 ft 384 kts 89°
2026-04-15 11:37 50.39000 30.35093 13002 ft 384 kts 101°
2026-04-15 11:37 50.38200 30.39019 12419 ft 382 kts 107°
2026-04-15 11:37 50.37320 30.42928 11841 ft 379 kts 107°
2026-04-15 11:38 50.36448 30.46800 11297 ft 375 kts 107°
2026-04-15 11:38 50.35587 30.50628 10841 ft 368 kts 107°
2026-04-15 11:38 50.34751 30.54332 10712 ft 353 kts 107°
2026-04-15 11:38 50.33945 30.57893 10585 ft 341 kts 107°
2026-04-15 11:39 50.33167 30.61329 10458 ft 329 kts 107°
2026-04-15 11:39 50.32413 30.64653 10340 ft 319 kts 109°
2026-04-15 11:39 50.31416 30.67653 10205 ft 312 kts 123°
2026-04-15 11:39 50.30003 30.70181 9974 ft 309 kts 138°
2026-04-15 11:40 50.28254 30.72092 9659 ft 306 kts 153°
2026-04-15 11:40 50.26287 30.73297 9345 ft 302 kts 167°
2026-04-15 11:40 50.24242 30.73939 9132 ft 296 kts 171°
2026-04-15 11:40 50.22242 30.74542 8994 ft 289 kts 171°
2026-04-15 11:41 50.20302 30.75100 8855 ft 275 kts 176°
2026-04-15 11:41 50.18442 30.75153 8568 ft 263 kts 186°
2026-04-15 11:41 50.16624 30.75020 8187 ft 261 kts 186°
2026-04-15 11:41 50.14818 30.74888 7950 ft 258 kts 186°
2026-04-15 11:42 50.13066 30.74765 7558 ft 255 kts 186°
2026-04-15 11:42 50.11297 30.74644 7142 ft 253 kts 186°
2026-04-15 11:42 50.09543 30.74579 6764 ft 253 kts 177°
2026-04-15 11:42 50.07893 30.75486 6472 ft 255 kts 144°
2026-04-15 11:43 50.06768 30.77565 6116 ft 251 kts 112°
2026-04-15 11:43 50.06435 30.80188 5670 ft 248 kts 89°
2026-04-15 11:43 50.06394 30.82866 5281 ft 247 kts 82°
2026-04-15 11:43 50.06899 30.85353 4938 ft 239 kts 54°
2026-04-15 11:44 50.07976 30.87170 4756 ft 226 kts 32°
2026-04-15 11:44 50.09319 30.88331 4551 ft 217 kts 15°
2026-04-15 11:44 50.10770 30.88801 4317 ft 210 kts 358°
2026-04-15 11:44 50.12196 30.88903 4172 ft 201 kts 359°
2026-04-15 11:45 50.13564 30.89003 4083 ft 195 kts 358°
2026-04-15 11:45 50.14916 30.89101 3897 ft 195 kts 357°
2026-04-15 11:45 50.16271 30.89199 3635 ft 194 kts 358°
2026-04-15 11:45 50.17603 30.89296 3389 ft 195 kts 359°
2026-04-15 11:46 50.18968 30.89396 3120 ft 193 kts 358°
2026-04-15 11:46 50.20293 30.89492 2871 ft 195 kts 359°
2026-04-15 11:46 50.21652 30.89590 2602 ft 196 kts 358°
2026-04-15 11:46 50.22983 30.89689 2345 ft 187 kts 358°
2026-04-15 11:47 50.24238 30.89784 2090 ft 174 kts 358°
2026-04-15 11:47 50.25378 30.89869 1861 ft 154 kts 356°
2026-04-15 11:47 50.26401 30.89944 1673 ft 142 kts 359°
2026-04-15 11:47 50.27367 30.90014 1481 ft 135 kts 356°
2026-04-15 11:48 50.28285 30.90080 1299 ft 133 kts 358°
2026-04-15 11:48 50.29208 30.90150 1125 ft 132 kts 355°
2026-04-15 11:48 50.30127 30.90216 930 ft 133 kts 356°
2026-04-15 11:48 50.31059 30.90272 742 ft 134 kts 357°
2026-04-15 11:49 50.31994 30.90330 569 ft 136 kts 360°
2026-04-15 11:49 50.32928 30.90415 439 ft 127 kts 358°
2026-04-15 11:49 50.33689 30.90471 419 ft 86 kts
2026-04-15 11:49 50.34104 30.90502 423 ft 31 kts
2026-04-15 11:50 50.34298 30.90470 419 ft 27 kts 343°
2026-04-15 11:50 50.34443 30.90366 416 ft 22 kts 332°
2026-04-15 11:50 50.34580 30.90256 413 ft 22 kts 333°
2026-04-15 11:50 50.34701 30.90223 412 ft 17 kts
2026-04-15 11:51 50.34831 30.90233 414 ft 20 kts
2026-04-15 11:51 50.34974 30.90244 411 ft 22 kts
2026-04-15 11:51 50.35125 30.90254 408 ft 14 kts
2026-04-15 11:51 50.35192 30.90174 414 ft 13 kts 282°
2026-04-15 11:52 50.35207 30.90049 415 ft 12 kts 307°
2026-04-15 11:52 50.35272 30.90030 412 ft 5 kts 40°
2026-04-15 11:52 50.35270 30.90083 413 ft 6 kts 93°
2026-04-15 11:52 50.35269 30.90137 415 ft 3 kts 92°
2026-04-15 11:53 50.35268 30.90154 415 ft 0 kts 92°